OneWeb SL0041

operational
NORAD ID: 45148 Int'l Des: 2020-008 Owner: ONEWEB Country: UK Constellation: oneweb
LEOCIRCULARPOLAR

Über OneWeb SL0041

Beschreibung wird geladen...

Live-Position

3D-Globus wird geladen...

Nächste Überflüge

Höhenverlauf

Altitude vs Time

uPlot chart will show altitude changes over time

Zweizeiliger Elementsatz

1 45148U 20008T 25304.30252818 .00000091 00000-0 12399-3 0 9992
2 45148 87.9335 51.5861 0018160 164.7919 195.3780 13.48572978287204
Epoch: 31. Okt. 2025 • Age: 6 hours

Aktueller Status

Höhe 1069.1 km
Geschwindigkeit 7.33 km/s
Subsatellitenpunkt 33.87°N, 9.82°W
Startdatum 6. Feb. 2020
Alter 5.7 years
Typ internet

Technische Details

Klassifizierung Payload
Masse 148.00 kg
Trockenmasse 140.00 kg
Gesamtmasse 148.00 kg
Länge 1.30 m
Durchmesser 1.00 m
Spannweite 5.00 m
Form Trapezoid+2 pan
Hersteller ONEWUS
Bus-Typ ARROW
Phasenstatus In Orbit
Besitzer/Staat ONEWEB/UK

Große Konstellationen

Loading constellations...